This demonstration page uses our WeatherBlox Daily Observations layout. Learn more.

Left ArrowRight Arrow

39.51506, -84.39828

Hourly Observations for February 24, 2019

Temp ( °F °C ) Dew Point ( °F °C ) Humidity (%) Winds ( mph kmh ) Pressure ( in mb ) Visibility ( mi km ) Precip ( " mm )
12:15 am 00:15 Cloudy 58 14.2 55 12.6 90 90 SSE 13 20 29.56 1001 10 16 0.01 0.25
12:35 am 00:35 Cloudy 58 14.2 55 12.5 90 90 SSE 16 26 29.55 1001 10 16 0.01 0.25
12:55 am 00:55 Cloudy 58 14.4 55 12.7 90 90 S 8 13 29.55 1001 10 16 0.01 0.25
1:15 am 01:15 Cloudy 58 14.6 55 12.9 90 90 SSW 12 19 29.53 1000 10 16 0.00 0.00
1:35 am 01:35 Cloudy 58 14.7 56 13.2 91 91 S 18 30 29.53 1000 10 16 0.00 0.00
1:55 am 01:55 Cloudy 59 15.1 56 13.3 89 89 S 17 28 29.51 999 10 16 0.00 0.00
2:15 am 02:15 Mostly Cloudy 59 14.8 55 13 89 89 S 16 26 29.50 999 10 16 0.00 0.00
2:35 am 02:35 Cloudy 59 14.8 56 13.2 90 90 S 14 22 29.48 998 10 16 0.00 0.00
2:55 am 02:55 Cloudy 59 14.8 56 13.3 91 91 S 13 20 29.47 998 10 16 0.00 0.00
3:15 am 03:15 Cloudy 58 14.7 56 13.1 90 90 SSW 13 20 29.47 998 10 16 0.00 0.00
3:35 am 03:35 Cloudy 58 14.7 55 13 90 90 SSW 13 20 29.46 998 10 16 0.00 0.00
3:55 am 03:55 Cloudy 59 14.9 55 12.6 86 86 SSW 16 26 29.45 997 10 16 0.00 0.00
4:15 am 04:15 Mostly Cloudy 59 14.8 54 12 83 83 SSW 21 33 29.45 997 10 16 0.00 0.00
4:35 am 04:35 Partly Cloudy 58 14.2 52 11.3 83 83 SSW 15 24 29.45 997 10 16 0.00 0.00
4:55 am 04:55 Partly Cloudy 56 13.6 51 10.6 82 82 SW 17 28 29.46 998 10 16 0.00 0.00
5:15 am 05:15 Partly Cloudy 56 13.1 50 10.1 82 82 SSW 17 28 29.46 998 10 16 0.00 0.00
5:35 am 05:35 Clear 55 12.9 49 9.4 79 79 SSW 16 26 29.46 998 10 16 0.00 0.00
5:55 am 05:55 Clear 55 12.7 48 8.9 78 78 SSW 18 30 29.47 998 10 16 0.00 0.00
6:15 am 06:15 Clear 55 12.6 45 7.3 70 70 SSW 17 28 29.47 998 10 16 0.00 0.00
6:35 am 06:35 Clear 54 12.3 42 5.8 65 65 SSW 25 41 29.46 998 10 16 0.00 0.00
6:55 am 06:55 Partly Cloudy 54 12.1 41 4.9 62 62 SW 23 37 29.47 998 10 16 0.00 0.00
7:15 am 07:15 Cloudy 54 12 40 4.3 60 60 SW 22 35 29.47 998 10 16 0.00 0.00
7:35 am 07:35 Cloudy 53 11.8 40 4.2 60 60 SW 22 35 29.47 998 10 16 0.00 0.00
7:55 am 07:55 Cloudy 51 10.7 39 3.9 63 63 W 29 46 29.54 1000 10 16 0.00 0.00
8:15 am 08:15 Cloudy 46 8 36 2.2 67 67 W 32 52 29.57 1001 10 16 0.00 0.00
8:35 am 08:35 Cloudy 43 6.1 32 0 65 65 W 30 48 29.62 1003 10 16 0.00 0.00
8:55 am 08:55 Cloudy 42 5.8 32 0 67 67 W 26 43 29.64 1004 10 16 0.00 0.00
9:15 am 09:15 Cloudy 42 5.8 31 -0.4 65 65 WSW 26 43 29.65 1004 10 16 0.00 0.00
9:35 am 09:35 Cloudy 41 5 31 -0.7 67 67 WSW 31 50 29.68 1005 10 16 0.00 0.00
9:55 am 09:55 Cloudy 40 4.5 30 -0.9 68 68 WSW 29 46 29.70 1006 10 16 0.00 0.00
10:15 am 10:15 Cloudy 40 4.2 30 -1 69 69 WSW 29 46 29.72 1007 10 16 0.00 0.00
10:35 am 10:35 Cloudy 39 3.9 29 -1.9 66 66 WSW 31 50 29.74 1007 10 16 0.00 0.00
10:55 am 10:55 Cloudy 39 3.7 28 -2.2 66 66 WSW 28 44 29.76 1008 10 16 0.00 0.00
11:15 am 11:15 Cloudy 38 3.6 28 -2.1 67 67 WSW 29 46 29.77 1008 10 16 0.00 0.00
11:35 am 11:35 Cloudy 38 3.6 28 -2.1 67 67 WSW 24 39 29.79 1009 10 16 0.00 0.00
11:55 am 11:55 Cloudy 39 3.8 28 -2 66 66 WSW 31 50 29.80 1009 10 16 0.00 0.00
12:15 pm 12:15 Cloudy 38 3.6 29 -1.6 69 69 WSW 25 41 29.82 1010 10 16 0.00 0.00
12:35 pm 12:35 Cloudy 39 3.7 29 -1.5 69 69 WSW 29 46 29.82 1010 10 16 0.00 0.00
12:55 pm 12:55 Cloudy 38 3.5 29 -1.4 71 71 WSW 25 41 29.83 1010 10 16 0.00 0.00
1:15 pm 13:15 Cloudy 39 3.8 28 -2.3 65 65 W 32 52 29.83 1010 10 16 0.00 0.00
1:35 pm 13:35 Cloudy 38 3.6 29 -1.7 69 69 WSW 26 43 29.85 1011 10 16 0.00 0.00
1:55 pm 13:55 Cloudy 39 3.7 28 -2.2 66 66 WSW 31 50 29.85 1011 10 16 0.00 0.00
2:15 pm 14:15 Cloudy 40 4.2 27 -2.7 61 61 WSW 31 50 29.85 1011 10 16 0.00 0.00
2:35 pm 14:35 Mostly Cloudy 41 4.9 26 -3.1 57 57 W 31 50 29.87 1012 10 16 0.00 0.00
2:55 pm 14:55 Mostly Cloudy 42 5.5 27 -3 55 55 WSW 25 41 29.87 1012 10 16 0.00 0.00
3:15 pm 15:15 Partly Cloudy 41 4.9 23 -5 49 49 W 33 54 29.89 1012 10 16 0.00 0.00
3:35 pm 15:35 Partly Cloudy 43 6 23 -5 46 46 W 31 50 29.90 1012 10 16 0.00 0.00
3:55 pm 15:55 Sunny 42 5.7 22 -5.6 44 44 WSW 36 57 29.91 1013 10 16 0.00 0.00
4:15 pm 16:15 Sunny 42 5.7 22 -5.5 45 45 W 30 48 29.91 1013 10 16 0.00 0.00
4:35 pm 16:35 Sunny 42 5.8 21 -6.1 42 42 WSW 25 41 29.92 1013 10 16 0.00 0.00
4:55 pm 16:55 Partly Cloudy 42 5.7 20 -6.7 41 41 W 37 59 29.94 1014 10 16 0.00 0.00
5:15 pm 17:15 Partly Cloudy 41 5 20 -6.4 44 44 WSW 30 48 29.94 1014 10 16 0.00 0.00
5:35 pm 17:35 Sunny 40 4.6 20 -6.9 43 43 W 22 35 29.95 1014 10 16 0.00 0.00
5:55 pm 17:55 Sunny 40 4.7 19 -7.1 42 42 WSW 35 56 29.96 1015 10 16 0.00 0.00
6:15 pm 18:15 Sunny 39 4 19 -7.1 45 45 W 24 39 29.97 1015 10 16 0.00 0.00
6:35 pm 18:35 Clear 38 3.5 21 -6.2 49 49 W 20 31 29.99 1015 10 16 0.00 0.00
6:55 pm 18:55 Clear 38 3.1 17 -8.4 43 43 W 22 35 30.01 1016 10 16 0.00 0.00
7:15 pm 19:15 Clear 36 2.1 19 -7.5 49 49 W 18 30 30.03 1017 10 16 0.00 0.00
7:35 pm 19:35 Clear 36 2.4 19 -7.2 50 50 W 25 41 30.03 1017 10 16 0.00 0.00
7:55 pm 19:55 Clear 35 1.7 18 -8 49 49 W 29 46 30.06 1018 10 16 0.00 0.00
8:15 pm 20:15 Clear 34 1.1 17 -8.3 50 50 W 22 35 30.07 1018 10 16 0.00 0.00
8:35 pm 20:35 Clear 33 0.7 18 -7.7 54 54 W 22 35 30.08 1019 10 16 0.00 0.00
8:55 pm 20:55 Clear 33 0.7 18 -7.7 54 54 W 20 31 30.09 1019 10 16 0.00 0.00
9:15 pm 21:15 Clear 33 0.5 19 -7.3 56 56 W 21 33 30.09 1019 10 16 0.00 0.00
9:35 pm 21:35 Clear 32 0.2 17 -8.2 54 54 W 18 30 30.10 1019 10 16 0.00 0.00
9:55 pm 21:55 Clear 31 -0.3 16 -8.8 53 53 W 21 33 30.13 1020 10 16 0.00 0.00
10:15 pm 22:15 Clear 31 -0.5 16 -8.9 53 53 W 18 30 30.14 1021 10 16 0.00 0.00
10:35 pm 22:35 Clear 31 -0.7 16 -8.7 55 55 W 15 24 30.15 1021 10 16 0.00 0.00
10:55 pm 22:55 Partly Cloudy 31 -0.7 17 -8.3 57 57 WSW 23 37 30.15 1021 10 16 0.00 0.00
11:15 pm 23:15 Clear 30 -1.1 14 -9.9 52 52 W 23 37 30.16 1021 10 16 0.00 0.00
11:35 pm 23:35 Clear 29 -1.5 16 -9.1 57 57 WSW 17 28 30.16 1021 10 16 0.00 0.00
11:55 pm 23:55 Clear 29 -1.5 16 -8.8 58 58 W 18 30 30.17 1022 10 16 0.00 0.00

Powered by AerisWeather